This is the latest recevied weather packets stored in our database for station/object SQ9RHX-13. If no packets are shown the sender has not sent any weather packets the latest 10 day(s).
| Time | Temp. | Humidity | Pressure | Rain* | Wind** | Luminosity | Snow |
|---|---|---|---|---|---|---|---|
| 1777924206 | 15.56° C | 72% | 1015.4 hPa | 0 mm | - | 0 W/m² | - |
| 1777923904 | 15.56° C | 71% | 1015.4 hPa | 0 mm | - | 0 W/m² | - |
| 1777923606 | 15.56° C | 72% | 1015.4 hPa | 0 mm | - | 0 W/m² | - |
| 1777923305 | 15.56° C | 72% | 1015.4 hPa | 0 mm | - | 0 W/m² | - |
| 1777923003 | 15.56° C | 70% | 1015.4 hPa | 0 mm | - | 0 W/m² | - |
| 1777922749 | 16.11° C | 68% | 1015.4 hPa | 0 mm | - | 0 W/m² | - |
| 1777922402 | 16.11° C | 68% | 1015.3 hPa | 0 mm | - | 0 W/m² | - |
| 1777922103 | 16.11° C | 68% | 1015.2 hPa | 0 mm | - | 0 W/m² | - |
| 1777921802 | 16.11° C | 68% | 1015.3 hPa | 0 mm | - | 0 W/m² | - |
| 1777921503 | 16.11° C | 68% | 1015.2 hPa | 0 mm | - | 0 W/m² | - |
| 1777921204 | 16.11° C | 66% | 1015.3 hPa | 0 mm | - | 0 W/m² | - |
| 1777920904 | 16.67° C | 64% | 1015.2 hPa | 0 mm | - | 0 W/m² | - |
| 1777920605 | 16.67° C | 65% | 1015.1 hPa | 0 mm | - | 0 W/m² | - |
| 1777920302 | 16.67° C | 63% | 1014.9 hPa | 0 mm | - | 0 W/m² | - |
| 1777920003 | 17.22° C | 62% | 1015 hPa | 0 mm | - | 0 W/m² | - |
| 1777919704 | 17.22° C | 61% | 1015 hPa | 0 mm | - | 0 W/m² | - |
| 1777919404 | 17.78° C | 60% | 1015 hPa | 0 mm | - | 0 W/m² | - |
| 1777919105 | 18.33° C | 59% | 1014.8 hPa | 0 mm | - | 1 W/m² | - |
| 1777918803 | 18.33° C | 60% | 1014.9 hPa | 0 mm | - | 1 W/m² | - |
| 1777918504 | 18.89° C | 58% | 1014.8 hPa | 0 mm | - | 2 W/m² | - |
| 1777918203 | 19.44° C | 53% | 1014.9 hPa | 0 mm | - | 3 W/m² | - |
| 1777917903 | 20° C | 51% | 1014.8 hPa | 0 mm | - | 5 W/m² | - |
| 1777917604 | 20.56° C | 50% | 1014.8 hPa | 0 mm | - | 6 W/m² | - |
| 1777917304 | 21.11° C | 51% | 1014.8 hPa | 0 mm | - | 8 W/m² | - |
| 1777917003 | 21.67° C | 48% | 1014.8 hPa | 0 mm | - | 10 W/m² | - |
* Rain latest hour (hover to see other rain measurements)
** Current wind speed in m/s (hover to see current wind gust speed)